Simultaneous Nadir Overpasses (SNOs) Predictions

Prediction of SNOs between NOAA-15 and METOP-C Satellite Orbit:

Table of predicted SNOs for the next 14.0 days since TLE Epoch: 3/3/2025
Index Date (NOAA-15) Time (NOAA-15) Lat,Lon (NOAA-15) SZA (NOAA-15 ) Date (METOP-C) Time (METOP-C) Lat,Lon (METOP-C) SZA (METOP-C ) Distance(km) Time Diff (sec)
1 03/16/2025 11:49:56 81.03, 39.53 84.14 03/16/2025 11:48:48 81.02, 39.55 84.10 1.68 68
2 03/16/2025 12:40:24 -81.03,-153.08 95.88 03/16/2025 12:39:29 -81.03,-152.92 95.89 2.90 55
3 03/16/2025 13:30:54 81.02, 14.48 84.12 03/16/2025 13:30:09 81.02, 14.38 84.10 1.85 45
4 03/16/2025 14:21:22 -81.02,-178.13 95.90 03/16/2025 14:20:50 -81.03,-178.09 95.90 1.52 32
5 03/16/2025 15:11:53 81.03, -10.93 84.09 03/16/2025 15:11:30 81.03, -10.80 84.09 2.35 23
6 03/16/2025 16:02:21 -81.03, 156.45 95.93 03/16/2025 16:02:12 -81.02, 156.37 95.95 1.48 9
7 03/16/2025 16:52:52 81.04, -36.34 84.05 03/16/2025 16:52:52 81.02, -36.34 84.04 1.80 0
8 03/16/2025 17:43:20 -81.04, 131.04 95.97 03/16/2025 17:43:33 -81.03, 131.20 95.96 3.02 13
9 03/16/2025 18:33:50 81.03, -61.39 84.03 03/16/2025 18:34:13 81.03, -61.51 84.03 2.01 23
10 03/16/2025 19:24:18 -81.03, 105.98 95.99 03/16/2025 19:24:54 -81.04, 106.03 95.96 1.38 36
11 03/16/2025 20:14:49 81.04, -86.80 84.00 03/16/2025 20:15:34 81.04, -86.68 84.02 2.17 45
12 03/16/2025 21:05:17 -81.04, 80.57 96.02 03/16/2025 21:06:16 -81.03, 80.49 96.01 1.52 59



Historial Predications of SNOs between NOAA-15 and METOP-C
